Location: Asheville, NC
(35.6000°N, 82.5500°W)
Time: 13:43:52
(UTC-04:00)

YUBILEINY - Pass Details

Date: 17 March 2018
Orbit: 1479 x 1508 km, 82.5° (Epoch: 19 June)

Event Time Altitude Azimuth Distance (km) Brightness Sun altitude
Rises 20:19:45 0° 231° (SW) 4,591 ? -9.0°
Reaches altitude 10° 20:23:38 10° 246° (WSW) 3,612 ? -9.8°
Maximum altitude 20:29:42 21° 292° (WNW) 2,866 ? -11.0°
Drops below altitude 10° 20:35:49 10° 337° (NNW) 3,622 ? -12.2°
Sets 20:39:47 0° 354° (N) 4,607 ? -13.0°
